Flag for Germany Weather past 2 weeks in Schwäbisch Hall, Baden-Württemberg, Germany

Now
42 °F

Overcast.


Feels Like: 39 °F
Forecast: 29 / 44 °F
Wind: 5 mph from Northwest

Location: Oehringen

Current Time: Mar 5, 2015 at 12:24:04 PM

Latest Report: Mar 5, 2015 at 12:00 PM


Visibility: 38 mi

Pressure: 30.62 "Hg

Humidity: 58%

Dew point: 28 °F

Location of Schwäbisch HallLocation

Historic Weather in Schwäbisch Hall — Graph

°F

Schwäbisch Hall temperature yesterday

Maximum temperature yesterday: 44 °F (at 2:00 PM)
Minimum temperature yesterday: 35 °F (at 7:00 AM)
Average temperature yesterday: 39 °F

Past Weeks' High & Low Weather Summary

 TemperatureHumidityPressure
High57 °F (Feb 20, 4:00 PM)98% (Feb 28, 6:00 AM)30.79 "Hg (Feb 28, 6:00 AM)
Low24 °F (Feb 20, 7:00 AM)34% (Feb 21, 1:00 AM)29.53 "Hg (Feb 21, 11:00 AM)
Average39 °F76%30.03 "Hg
* Reported Feb 18 11:00 AM — Mar 5 11:00 AM, Schwäbisch Hall, Weather by CustomWeather, © 2015

Note: Actual official high and low records may vary slightly from our data, if they occured in-between our weather recording intervals... More about our weather records

Advertising

Schwäbisch Hall weather history for previous 24 hours

 ConditionsComfort  
Time TempWeatherWind HumidityBarometerVisibility
11:00 AM
Thu, Mar 5
39 °FOvercast.5 mph65%30.63 "Hg28 mi
10:00 AM38 °FOvercast.3 mph74%30.62 "Hg22 mi
9:00 AM36 °FOvercast.2 mph80%30.61 "Hg17 mi
8:00 AM35 °FOvercast.3 mph84%30.59 "Hg12 mi
7:00 AM34 °FPartly sunny.3 mph86%30.58 "Hg12 mi
6:00 AM35 °FPassing clouds.3 mph84%30.55 "Hg14 mi
5:00 AM36 °FOvercast.5 mph80%30.53 "Hg16 mi
4:00 AM37 °FOvercast.3 mph79%30.52 "Hg17 mi
3:00 AM37 °FOvercast.6 mph76%30.50 "Hg18 mi
2:00 AM36 °FOvercast.3 mph81%30.50 "Hg16 mi
1:00 AM36 °FOvercast.3 mph82%30.49 "Hg16 mi
12:00 AM35 °FPassing clouds.3 mph87%30.48 "Hg10 mi
11:00 PM
Wed, Mar 4
36 °FLight rain. Overcast.3 mph82%30.46 "Hg15 mi
10:00 PM36 °FOvercast.1 mph84%30.44 "Hg25 mi
9:00 PM36 °FOvercast.1 mph81%30.43 "Hg37 mi
8:00 PM38 °FPassing clouds.2 mph69%30.40 "Hg16 mi
7:00 PM40 °FPassing clouds.2 mph64%30.38 "Hg22 mi
6:00 PM42 °FOvercast.3 mph59%30.36 "Hg34 mi
5:00 PM42 °FScattered clouds.5 mph57%30.35 "Hg28 mi
4:00 PM44 °FOvercast.6 mph55%30.34 "Hg31 mi
3:00 PM42 °FOvercast.6 mph58%30.33 "Hg25 mi
2:00 PM44 °FPartly sunny.8 mph52%30.32 "Hg28 mi
1:00 PM42 °FOvercast.8 mph57%30.34 "Hg28 mi
12:00 PM43 °FOvercast.6 mph59%30.33 "Hg25 mi
Weather by CustomWeather, © 2015

See weather overviewHow to use our weather pages